Flag for Poland Weather past 2 weeks in Bielsko-Biała, Poland

Now
62 °F

Fog.


Feels Like: 62 °F
Forecast: 49 / 61 °F
Wind: 1 mph from Northwest

Location: Katowice

Current Time: Oct 1, 2014 at 5:02:24 PM

Latest Report: Oct 1, 2014 at 4:00 PM


Visibility: 5 mi

Pressure: 30.27 "Hg

Humidity: 85%

Dew point: 58 °F

Location of Bielsko-BiałaLocation

Historic Weather in Bielsko-Biała — Graph

°F

Bielsko-Biała temperature yesterday

Maximum temperature yesterday: 70 °F (at 3:00 PM)
Minimum temperature yesterday: 49 °F (at 7:00 AM)
Average temperature yesterday: 60 °F

Past Weeks' High & Low Weather Summary

 TemperatureHumidityPressure
High72 °F (Sep 19, 2:00 PM)99% (Sep 28, 9:00 AM)30.44 "Hg (Sep 28, 9:00 AM)
Low35 °F (Sep 24, 7:00 AM)43% (Sep 19, 2:00 PM)29.72 "Hg (Sep 22, 4:00 AM)
Average55 °F83%30.10 "Hg
* Reported Sep 16 3:00 PM — Oct 1 3:00 PM, Bielsko-Biała, Weather by CustomWeather, © 2014

Note: Actual official high and low records may vary slightly from our data, if they occured in-between our weather recording intervals... More about our weather records

Advertising

Bielsko-Biała weather history for previous 24 hours

 ConditionsComfort  
Time TempWeatherWind HumidityBarometerVisibility
3:00 PM
Oct 1
61 °FFog.1 mph90%30.28 "Hg4 mi
2:00 PM62 °FFog.2 mph88%30.29 "Hg4 mi
1:00 PM62 °FFog.1 mph87%30.29 "Hg4 mi
12:00 PM62 °FFog.1 mph90%30.29 "Hg2 mi
11:00 AM61 °FFog.1 mph91%30.30 "Hg2 mi
10:00 AM60 °FFog.2 mph94%30.29 "Hg2 mi
9:00 AM60 °FFog.1 mph97%30.28 "Hg1 mi
8:00 AM59 °FFog.1 mph98%30.28 "Hg1 mi
7:00 AM58 °FFog.1 mph98%30.27 "Hg1 mi
6:00 AM57 °FFog.No wind97%30.27 "Hg2 mi
5:00 AM58 °FFog.No wind97%30.27 "Hg2 mi
4:00 AM58 °FFog.1 mph97%30.27 "Hg2 mi
3:00 AM58 °FFog.1 mph97%30.27 "Hg2 mi
2:00 AM59 °FFog.No wind96%30.27 "Hg4 mi
1:00 AM59 °FOvercast.No wind96%30.27 "Hg4 mi
12:00 AM60 °FLight rain. Overcast.1 mph93%30.27 "Hg4 mi
11:00 PM
Sep 30
59 °FOvercast.1 mph94%30.27 "Hg6 mi
10:00 PM59 °FOvercast.1 mph95%30.27 "Hg6 mi
9:00 PM59 °FOvercast.1 mph95%30.27 "Hg6 mi
8:00 PM59 °FOvercast.1 mph92%30.26 "Hg6 mi
7:00 PM62 °FOvercast.2 mph89%30.26 "Hg6 mi
6:00 PM67 °FOvercast.1 mph71%30.24 "Hg6 mi
5:00 PM68 °FOvercast.1 mph66%30.24 "Hg6 mi
Weather by CustomWeather, © 2014

See weather overviewHow to use our weather pages